Atlantic - Newfoundland: Past 24 Hour Conditions

 

Grates Cove

11:30 AM NDT 31 October 2014
This table is a summary of hourly weather conditions for the past 24 hours.
Date / Time
(NDT)
Wind(knots) Conditions Visibility(km) Pressure(kPa) Air tempC) Relative humidity(%) Dew pointC)
31 October 2014
11:30 NW 8 N/A N/A 100.9 9 75 5
10:30 WNW 11 N/A N/A 100.8 8 76 4
9:30 WNW 11 N/A N/A 100.8 8 76 4
8:30 WNW 12 N/A N/A 100.7 7 81 4
7:30 WNW 12 N/A N/A 100.6 7 82 4
6:30 WNW 15 N/A N/A 100.5 7 81 4
5:30 WNW 13 N/A N/A 100.4 7 84 5
4:30 NW 13 N/A N/A 100.4 8 85 5
3:30 NW 16 N/A N/A 100.3 8 84 6
2:30 WNW 10 N/A N/A 100.3 9 89 7
1:30 W 15 gust 20 N/A N/A 100.2 10 94 9
0:30 WSW 17 gust 22 N/A N/A 100.2 10 93 9
30 October 2014
23:30 WSW 17 N/A N/A 100.2 11 93 10
22:30 WSW 21 N/A N/A 100.2 12 95 12
21:30 WSW 21 N/A N/A 100.1 13 95 12
20:30 WSW 19 N/A N/A 100.1 13 96 13
19:30 WSW 15 gust 21 N/A N/A 100.1 14 97 13
18:30 WSW 18 N/A N/A 100.1 14 98 13
17:30 WSW 19 gust 28 N/A N/A 100.1 14 97 14
16:30 WSW 15 gust 23 N/A N/A 100.0 15 95 14
15:30 WSW 26 gust 33 N/A N/A 100.0 15 94 14
14:30 WSW 29 gust 38 N/A N/A 100.0 15 95 14
13:30 WSW 29 gust 40 N/A N/A 100.1 15 98 14
12:30 WSW 26 gust 33 N/A N/A 100.2 15 98 15
11:30 SW 22 gust 27 N/A N/A 100.3 14 98 14
 
Map of Atlantic - Newfoundland marine weather areas Southwestern Grand Banks - 44138 Banquereau - 44139 Tail of the Bank - 44140 Nickerson Bank - 44251 Northeast Burgeo Bank - 44255 Blanc-Sablon Airport Cap Whittle Chevery Natashquan Airport Heath Point Miscou Island Grand Étang Ingonish Beach North Mountain St.Paul Island J.A. Douglas McCurdy Sydney Airport Charlottetown Airport East Point North Cape Argentia Bonavista Burgeo Cape Race Corner Brook Daniel's Harbour Englee Ferolle Point La Scie Port aux Basques Rocky Harbour Sagona Island St. Anthony Airport St. John's Int'l Airport St. Lawrence Stephenville Airport Twillingate Winterland Wreckhouse Cartwright Airport Mary's Harbour Grates Cove Pool's Island Marticot Island Long Pond Îles de la Madeleine Airport
Legend: buoyBuoy land stationLand Station